Regional Weather Roundup
Issued by NWS

Home | Current Version | Previous Version | Text Only | Print | Product List | Glossary On
Versions: 1 2 3 4 5 6 7 8 9 10 11 12 13 14 15 16 17 18 19 20 21 22 23 24 25 26 27 28 29 30 31 32 33 34 35 36 37 38 39 40 41 42 43 44 45 46 47 48 49 50
000
ASUS43 KMKX 100700
RWRWI

WISCONSIN REGIONAL WEATHER ROUNDUP
NATIONAL WEATHER SERVICE MILWAUKEE/SULLIVAN WI
200 AM CDT THU JUL 10 2014

NOTE: "FAIR" INDICATES FEW OR NO CLOUDS BELOW 12,000 FEET WITH NO
SIGNIFICANT WEATHER AND/OR OBSTRUCTIONS TO VISIBILITY.

WIZ001-002-006>008-014>016-023>028-100800-
NORTHWEST WISCONSIN

CITY           SKY/WX    TMP DP  RH WIND       PRES   REMARKS
SUPERIOR ARPT  PTCLDY    50  49  99 NE5       30.04R
ASHLAND        CLEAR     47  46  97 CALM      30.06S FOG
HAYWARD        CLEAR     53  52  96 CALM      30.07R
SIREN          PTCLDY    54  52  92 CALM      30.05R
RICE LAKE      CLEAR     55  54  95 CALM      30.07R FOG
LADYSMITH      CLEAR     55  52  88 E3        30.09R
EAU CLAIRE     NOT AVBL
MENOMONIE      SUNNY     60  57  89 CALM      30.05S
NEW RICHMOND   CLEAR     58  56  94 E3        30.04S
OSCEOLA        CLEAR     58  58  99 E5        30.06S
$$

WIZ003>005-009-010-017-018-100800-
NORTH CENTRAL WISCONSIN

CITY           SKY/WX    TMP DP  RH WIND       PRES   REMARKS
WOODRUFF       CLEAR     44  36  72 CALM      30.09R
RHINELANDER    CLEAR     45  44  97 CALM      30.10R
EAGLE RIVER    MOCLDY    44  44 100 CALM      30.09R FOG
LAND O LAKES   CLEAR     41  40  99 CALM      30.10R
PHILLIPS       CLEAR     49  48  97 CALM      30.08S
TOMAHAWK         N/A     42  41  96 CALM      30.09S FOG
MEDFORD        CLEAR     51  50  98 CALM      30.08S
MERRILL        CLEAR     47  47 100 CALM      30.09R
$$

WIZ029-030-035-036-043>047-100800-
CENTRAL WISCONSIN

CITY           SKY/WX    TMP DP  RH WIND       PRES   REMARKS
WAUSAU         CLEAR     52  50  93 E3        30.08R
MOSINEE        CLEAR     52  50  93 CALM      30.09S
MARSHFIELD     CLEAR     54  52  93 CALM      30.08R
STEVENS POINT  CLEAR     48  47  97 CALM      30.09S
WAUPACA        CLEAR     52  50  93 CALM      30.09R
WAUTOMA        NOT AVBL
WISC RAPIDS    CLEAR     52  50  93 CALM      30.09R
CAMP DOUGLAS   CLEAR     52  52 100 E3        30.08R
$$

WIZ011>013-019>022-031-037>040-048>050-100800-
NORTHEAST WISCONSIN

CITY           SKY/WX    TMP DP  RH WIND       PRES   REMARKS
ANTIGO         CLEAR     46  45  98 CALM      30.09S
STURGEON BAY   CLEAR     52  48  87 CALM      30.09S
GREEN BAY      CLEAR     54  53  97 CALM      30.08R
MANITOWOC      NOT AVBL
APPLETON       CLEAR     57  48  72 CALM      30.09R
CLINTONVILLE   CLEAR     52  50  93 CALM      30.08R
OSHKOSH        CLEAR     55  52  89 CALM      30.08R
$$

WIZ032>034-041-042-053>061-100800-
SOUTHWEST WISCONSIN

CITY           SKY/WX    TMP DP  RH WIND       PRES   REMARKS
LA CROSSE      CLEAR     61  56  83 SE5       30.06R
SPARTA         CLEAR     52  50  94 CALM      30.08S
VIROQUA        FAIR      61  54  78 SE6       30.08S
BOSCOBEL       CLEAR     56  54  93 CALM      30.09R
PRAIRIE DU CHI CLOUDY    61  58  90 E5        30.06S
PLATTEVILLE    FAIR      61  55  82 E6        30.09S
$$

WIZ056-057-062-063-064-067-068-100800-
SOUTH CENTRAL WISCONSIN

CITY           SKY/WX    TMP DP  RH WIND       PRES   REMARKS
BARABOO/DELLS  CLEAR     54  51  90 CALM      30.08S
LONE ROCK      NOT AVBL
WATERTOWN      CLEAR     54  53  96 CALM      30.09R
MADISON        CLEAR     56  53  90 CALM      30.09R
MIDDLETON      FAIR      54  54 100 CALM      30.09S
MONROE         CLEAR     63  52  67 SE6       30.09S
JANESVILLE     CLEAR     57  52  82 CALM      30.09R
$$

WIZ051-052-058>065-066-070>072-100800-
SOUTHEAST WISCONSIN

CITY           SKY/WX    TMP DP  RH WIND       PRES   REMARKS
MILWAUKEE      CLEAR     59  54  83 CALM      30.09R
WAUKESHA       CLEAR     54  50  87 CALM      30.11R
MILWAUKEE/TIMM CLEAR     55  52  88 CALM      30.10R
RACINE         CLEAR     59  55  87 CALM      30.11R
BURLINGTON     CLEAR     51  51  99 CALM      30.10R
KENOSHA        CLEAR     55  54  96 SW3       30.10R
FOND DU LAC    CLEAR     54  51  90 CALM      30.09R
SHEBOYGAN      CLEAR     51  50  96 CALM      30.09R FOG
WEST BEND      CLEAR     54  50  87 CALM      30.09R
JUNEAU         CLEAR     57  41  54 CALM      30.10R
$$

LSZ147-162-100800-
LAKE SUPERIOR

STATION/POSITION TIME  TEMP    WIND        PRES    WAVE
                       AIR SEA DIR/SP/G            HT/PER
                 (UTC) (F)     (DEG/KT/KT) (MB)    (FT/S)
W MID LAKE BUOY  0550   44 38  250/  6/  6 1017.3R   0
DEVILS ISLAND    0600   63     190/ 10/ 11 1017.1R
PORT WING        0600   58     140/  3/  4 1017.3R
SAXON HARBOR     0600          200/  6/  7 1017.3S
$$

LMZ867-665-643>646-100800-
LAKE MICHIGAN

STATION/POSITION TIME  TEMP    WIND        PRES    WAVE
                       AIR SEA DIR/SP/G            HT/PER
                 (UTC) (F)     (DEG/KT/KT) (MB)    (FT/S)
N MID LAKE BUOY  0550   56 54  170/  2/  4 1018.0R   0
NORTHPORT PIER   0600   57     200/  3/  6 1017.9S
SISTER BAY       0625   57        CALM       N/A
KEWAUNEE LAKESHO 0600   56     290/  5/  5 1018.9R
SHEBOYGAN LAKESH 0600   59        CALM     1018.8R
PORT WASHINGTON  0600   56      CALM  /  1 1019.3
ATWATER BUOY     0600   54     280/  4     1019.5R
MILWAUKEE LAKESH 0600   58      80/  1/  2   N/A
S MID LAKE BUOY  0550   58 56     CALM     1018.8R   0
KENOSHA   LAKESH 0600   62     260/  1/  4   N/A
$$

TC  - TEMPERATURE IN CELSIUS
VSB - VISIBILITY IN STATUTE MILES
WCI - WIND CHILL INDEX
HX  - HEAT INDEX



USA.gov is the U.S. government's official web portal to all federal, state and local government web resources and services.